Tsikada Rocket - Orbit

View from above orbital plane
View from above orbital plane
View from above satellite
View from above satellite

Ground track
Ground track

The orbit data is extracted from the following two-line orbital elements,

1 23466U 95002D   13140.51666826 -.00000010  00000-0 -26995-4 0  5934
2 23466 082.9248 289.9379 0034978 028.4933 048.0686 13.74250277918810
Epoch (UTC): 20 May 2013 12:24:00
Eccentricity: 0.0034978
inclination: 82.9248°
perigee height: 958 km
apogee height: 1010 km
right ascension of ascending node: 289.9379°
argument of perigee: 28.4933°
revolutions per day: 13.74250277
mean anomaly at epoch: 48.0686°
orbit number at epoch: 91881

The dashed part of the orbit path shows where the satellite is in the earth's shadow,  

Developed and maintained by Chris Peat, Heavens-Above GmbH. Please read the updated FAQ before sending e-mail. Imprint. DLR